Date String (YYYY-MM-DD hh:mm:ss) UTC,Instrument flags,Ambient pressure (hPa),Sample flow (lpm),Bypass flow (lpm),Sample temperature (°C),Ambient temperature (°C),ASC tube jacket temperature (°C),LED temperature (°C),Box temperature (°C),Sample RH (%),Span deviation,Mass concentration (μg/m³),Mass concentration (μg/m³),Mass concentration (μg/m³)
DateTimeUTC,F1_M11,P_M11,Q1_M11,Q2_M11,T1_M11,T2_M11,T3_M11,T4_M11,T5_M11,U1_M11,ZSPAN_M11,X0_M11,X2_M11,X1_M11
2023-04-11 03:00:00,,0836.6,5.00,0.00,30.7,29.1,00.0,39.1,32.1,09.1,0000.0,0012.00,0003.71,0001.81
2023-04-11 03:01:00,,0836.6,5.00,0.00,30.7,29.1,00.0,39.1,32.1,09.2,0000.0,0012.42,0003.71,0001.80
2023-04-11 03:02:00,,0836.6,4.99,0.00,30.7,29.1,00.0,39.1,32.1,09.2,0000.0,0012.57,0003.73,0001.79
2023-04-11 03:03:00,,0836.6,5.00,0.00,30.7,29.1,00.0,39.1,32.1,09.1,0000.0,0013.84,0003.69,0001.80
2023-04-11 03:04:00,,0836.6,5.00,0.00,30.7,29.1,00.0,39.1,32.1,09.2,0000.0,0014.56,0003.76,0001.80
2023-04-11 03:05:00,,0836.6,5.01,0.00,30.7,29.1,00.0,39.1,32.1,09.1,0000.0,0015.06,0003.78,0001.79
2023-04-11 03:06:00,,0836.6,5.00,0.00,30.7,29.1,00.0,39.1,32.1,09.1,0000.0,0015.20,0003.80,0001.80
2023-04-11 03:07:00,,0836.6,5.00,0.00,30.7,29.1,00.0,39.1,32.1,09.1,0000.0,0015.71,0003.83,0001.81
2023-04-11 03:08:00,,0836.7,5.00,0.00,30.6,29.0,00.0,39.1,32.1,09.2,0000.0,0016.03,0003.91,0001.82
2023-04-11 03:09:00,,0836.6,5.00,0.00,30.6,29.0,00.0,39.1,32.1,09.2,0000.0,0016.06,0003.94,0001.82
2023-04-11 03:10:00,,0836.6,5.00,0.00,30.6,29.0,00.0,39.1,32.1,09.2,0000.0,0016.61,0003.92,0001.83
2023-04-11 03:11:00,,0836.6,5.00,0.00,30.6,29.0,00.0,39.1,32.1,09.1,0000.0,0016.78,0003.94,0001.84
2023-04-11 03:12:00,,0836.7,5.00,0.00,30.6,29.0,00.0,39.1,32.1,09.2,0000.0,0016.79,0003.97,0001.86
2023-04-11 03:13:00,,0836.7,5.01,0.00,30.6,29.0,00.0,39.1,32.1,09.1,0000.0,0016.94,0003.98,0001.86
2023-04-11 03:14:00,,0836.7,5.00,0.00,30.6,29.0,00.0,39.1,32.1,09.1,0000.0,0016.07,0003.97,0001.86
2023-04-11 03:15:00,,0836.7,5.00,0.00,30.6,29.0,00.0,39.1,32.1,09.2,0000.0,0014.91,0003.91,0001.86
2023-04-11 03:16:00,,0836.7,5.00,0.00,30.6,29.0,00.0,39.1,32.0,09.3,0000.0,0014.22,0003.83,0001.86
2023-04-11 03:17:00,,0836.8,5.00,0.00,30.6,29.0,00.0,39.0,32.0,09.2,0000.0,0013.71,0003.80,0001.86
2023-04-11 03:18:00,,0836.7,4.99,0.00,30.6,28.9,00.0,39.0,32.1,09.2,0000.0,0014.09,0003.78,0001.85
2023-04-11 03:19:00,,0836.7,5.00,0.00,30.6,28.9,00.0,39.0,32.0,09.2,0000.0,0013.15,0003.70,0001.83
2023-04-11 03:20:00,,0836.8,5.00,0.00,30.6,28.9,00.0,39.0,32.0,09.2,0000.0,0013.09,0003.63,0001.83
2023-04-11 03:21:00,,0836.8,5.00,0.00,30.6,28.9,00.0,39.0,32.0,09.2,0000.0,0013.20,0003.61,0001.82
2023-04-11 03:22:00,,0836.8,5.00,0.00,30.6,28.9,00.0,39.0,32.0,09.2,0000.0,0012.89,0003.62,0001.82
2023-04-11 03:23:00,,0836.8,5.00,0.00,30.6,28.9,00.0,39.0,32.0,09.2,0000.0,0012.95,0003.64,0001.81
2023-04-11 03:24:00,,0836.8,5.00,0.00,30.5,28.9,00.0,39.0,32.0,09.2,0000.0,0012.83,0003.60,0001.80
2023-04-11 03:25:00,,0836.8,5.00,0.00,30.5,28.9,00.0,39.0,32.0,09.3,0000.0,0012.48,0003.59,0001.80
2023-04-11 03:26:00,,0836.8,5.00,0.00,30.5,28.8,00.0,39.0,32.0,09.3,0000.0,0011.69,0003.62,0001.81
2023-04-11 03:27:00,,0836.8,5.00,0.00,30.5,28.8,00.0,39.0,32.0,09.3,0000.0,0012.13,0003.69,0001.81
2023-04-11 03:28:00,,0836.8,5.00,0.00,30.5,28.8,00.0,39.0,32.0,09.3,0000.0,0012.97,0003.75,0001.81
2023-04-11 03:29:00,,0836.8,5.00,0.00,30.5,28.8,00.0,39.0,31.9,09.3,0000.0,0013.62,0003.77,0001.81
2023-04-11 03:30:00,,0836.8,5.01,0.00,30.5,28.8,00.0,39.0,31.9,09.3,0000.0,0013.59,0003.75,0001.81
2023-04-11 03:31:00,,0836.8,5.00,0.00,30.5,28.8,00.0,39.0,31.9,09.3,0000.0,0013.60,0003.78,0001.82
2023-04-11 03:32:00,,0836.7,5.01,0.00,30.5,28.8,00.0,38.9,31.9,09.4,0000.0,0013.41,0003.76,0001.81
2023-04-11 03:33:00,,0836.7,5.00,0.00,30.5,28.8,00.0,38.9,31.9,09.3,0000.0,0013.61,0003.75,0001.80
2023-04-11 03:34:00,,0836.8,5.00,0.00,30.4,28.7,00.0,38.9,31.9,09.3,0000.0,0014.20,0003.68,0001.78
2023-04-11 03:35:00,,0836.8,5.00,0.00,30.4,28.7,00.0,38.9,31.9,09.3,0000.0,0013.93,0003.69,0001.79
2023-04-11 03:36:00,,0836.8,4.99,0.00,30.4,28.7,00.0,38.9,31.9,09.4,0000.0,0015.01,0003.73,0001.78
2023-04-11 03:37:00,,0836.8,5.00,0.00,30.4,28.7,00.0,38.9,31.9,09.4,0000.0,0015.05,0003.75,0001.77
2023-04-11 03:38:00,,0836.7,5.00,0.00,30.4,28.7,00.0,38.9,31.9,09.3,0000.0,0014.82,0003.76,0001.75
2023-04-11 03:39:00,,0836.7,5.00,0.00,30.4,28.7,00.0,38.9,31.9,09.4,0000.0,0014.01,0003.73,0001.75
2023-04-11 03:40:00,,0836.7,5.00,0.00,30.4,28.7,00.0,38.9,31.9,09.3,0000.0,0013.06,0003.74,0001.76
2023-04-11 03:41:00,,0836.7,5.00,0.00,30.4,28.7,00.0,38.9,31.9,09.3,0000.0,0012.31,0003.72,0001.74
2023-04-11 03:42:00,,0836.7,5.00,0.00,30.4,28.7,00.0,38.9,31.9,09.4,0000.0,0012.25,0003.68,0001.73
2023-04-11 03:43:00,,0836.7,5.00,0.00,30.4,28.7,00.0,38.9,31.8,09.3,0000.0,0012.21,0003.70,0001.74
2023-04-11 03:44:00,,0836.7,5.00,0.00,30.4,28.6,00.0,38.8,31.8,09.3,0000.0,0011.84,0003.71,0001.76
2023-04-11 03:45:00,,0836.7,5.00,0.00,30.4,28.6,00.0,38.8,31.8,09.3,0000.0,0011.51,0003.78,0001.78
2023-04-11 03:46:00,,0836.7,5.01,0.00,30.3,28.6,00.0,38.8,31.8,09.3,0000.0,0012.22,0003.79,0001.80
2023-04-11 03:47:00,,0836.7,5.00,0.00,30.3,28.6,00.0,38.8,31.8,09.3,0000.0,0011.73,0003.80,0001.82
2023-04-11 03:48:00,,0836.8,5.00,0.00,30.3,28.6,00.0,38.8,31.7,09.3,0000.0,0012.19,0003.73,0001.83
2023-04-11 03:49:00,,0836.8,5.00,0.00,30.3,28.6,00.0,38.8,31.7,09.3,0000.0,0012.72,0003.62,0001.83
2023-04-11 03:50:00,,0836.8,5.00,0.00,30.3,28.6,00.0,38.8,31.7,09.3,0000.0,0012.69,0003.59,0001.84
2023-04-11 03:51:00,,0836.8,5.00,0.00,30.3,28.6,00.0,38.8,31.7,09.3,0000.0,0013.08,0003.57,0001.84
2023-04-11 03:52:00,,0836.8,5.00,0.00,30.3,28.6,00.0,38.8,31.7,09.3,0000.0,0012.72,0003.59,0001.85
2023-04-11 03:53:00,,0836.8,5.01,0.00,30.3,28.6,00.0,38.8,31.7,09.3,0000.0,0012.98,0003.59,0001.85
2023-04-11 03:54:00,,0836.8,5.00,0.00,30.3,28.5,00.0,38.8,31.7,09.3,0000.0,0012.70,0003.56,0001.84
2023-04-11 03:55:00,,0836.7,5.00,0.00,30.3,28.5,00.0,38.7,31.7,09.3,0000.0,0013.14,0003.59,0001.84
2023-04-11 03:56:00,,0836.7,5.00,0.00,30.3,28.5,00.0,38.7,31.7,09.3,0000.0,0012.92,0003.55,0001.83
2023-04-11 03:57:00,,0836.7,5.00,0.00,30.2,28.5,00.0,38.7,31.7,09.4,0000.0,0012.15,0003.58,0001.82
2023-04-11 03:58:00,,0836.7,5.00,0.00,30.2,28.5,00.0,38.7,31.7,09.4,0000.0,0012.19,0003.60,0001.81
2023-04-11 03:59:00,,0836.8,5.00,0.00,30.2,28.5,00.0,38.7,31.7,09.4,0000.0,0012.10,0003.62,0001.82
